STARLINK-1792

operational
NORAD ID: 46693 Int'l Des: 2020-073 Owner: SPXS Country: US Constellation: starlink
LEOCIRCULAR

About STARLINK-1792

Description loading...

Live Position

Loading 3D Globe...

Upcoming Passes

Altitude History

Altitude vs Time

uPlot chart will show altitude changes over time

Two-Line Element Set

1 46693U 20073Z 25250.42627172 .12814095 12391-4 88728-3 0 9991
2 46693 52.9957 248.2421 0002197 292.7320 67.3494 16.40437363270845
Epoch: Sep 7, 2025 • Age: 218 hours

Current Status

Position data unavailable
Launch Date Oct 18, 2020
Age 4.9 years
Decay Date Sep 7, 2025
Type internet

Technical Details

Classification Payload
Mass 260.00 kg
Dry Mass 248.00 kg
Total Mass 260.00 kg
Length 0.20 m
Diameter 2.80 m
Span 9.00 m
Shape Box + pan
Manufacturer SPXS
Bus Type Starlink
Phase Status Reentered
Owner/State SPXS/US

Large Constellations

Loading constellations...